"2015/01/01",  4.3,  4.5,  4.2
"2015/01/02",  3.8,  4.3,  3.5
"2015/01/03",  3.2,  3.5,  2.9
"2015/01/04",  2.9,  3.2,  2.7
"2015/01/05",  2.9,  3.1,  2.6
"2015/01/06",  3.2,  3.7,  3.0
"2015/01/07",  3.9,  4.1,  3.7
"2015/01/08",  3.7,  4.1,  3.4
"2015/01/09",  3.5,  3.8,  3.2
"2015/01/10",  3.3,  3.6,  3.0
"2015/01/11",  3.1,  3.4,  2.9
"2015/01/12",  3.2,  3.4,  3.0
"2015/01/13",  3.1,  3.4,  2.8
"2015/01/14",  2.9,  3.2,  2.7
"2015/01/15",  3.4,  3.9,  3.2
"2015/01/16",  3.8,  4.2,  3.6
"2015/01/17",  4.3,  4.6,  4.2
"2015/01/18",  4.1,  4.6,  3.7
"2015/01/19",  3.7,  4.0,  3.4
"2015/01/20",  3.7,  4.0,  3.4
"2015/01/21",  3.4,  3.8,  3.3
"2015/01/22",  3.5,  3.7,  3.3
"2015/01/23",  3.9,  4.4,  3.7
"2015/01/24",  3.9,  4.4,  3.6
"2015/01/25",  3.5,  3.8,  3.2
"2015/01/26",  4.0,  4.5,  3.7
"2015/01/27",  4.8,  5.5,  4.5
"2015/01/28",  5.5,  5.6,  5.3
"2015/01/29",  4.7,  5.5,  4.3
"2015/01/30",  4.3,  4.6,  4.1
"2015/01/31",  4.0,  4.2,  3.7
"2015/02/01",  3.8,  4.2,  3.5
"2015/02/02",  3.4,  3.9,  3.1
"2015/02/03",  3.2,  3.5,  2.9
"2015/02/04",  3.1,  3.4,  2.8
"2015/02/05",  3.3,  3.4,  3.2
"2015/02/06",  3.2,  3.6,  2.9
"2015/02/07",  3.4,  3.6,  3.1
"2015/02/08",  3.6,  3.8,  3.5
"2015/02/09",  3.7,  3.8,  3.5
"2015/02/10",  3.3,  3.7,  3.0
"2015/02/11",  3.1,  3.4,  2.8
"2015/02/12",  3.3,  3.8,  3.0
"2015/02/13",  3.7,  4.0,  3.4
"2015/02/14",  3.7,  4.0,  3.4
"2015/02/15",  3.6,  3.9,  3.3
"2015/02/16",  3.6,  3.9,  3.2
"2015/02/17",  3.7,  3.9,  3.6
"2015/02/18",  3.7,  3.8,  3.7
"2015/02/19",  3.8,  4.4,  3.4
"2015/02/20",  4.4,  4.7,  4.2
"2015/02/21",  4.4,  4.7,  4.1
"2015/02/22",  4.6,  4.8,  4.4
"2015/02/23",  5.1,  5.8,  4.8
"2015/02/24",  5.7,  6.0,  5.5
"2015/02/25",  5.9,  6.2,  5.7
"2015/02/26",  6.0,  6.2,  5.9
"2015/02/27",  5.9,  6.3,  5.6
"2015/02/28",  6.1,  6.3,  5.7
"2015/03/01",  6.1,  6.4,  6.0
"2015/03/02",  6.5,  6.9,  6.3
"2015/03/03",  6.5,  6.9,  6.2
"2015/03/04",  6.2,  6.8,  5.8
"2015/03/05",  6.8,  7.2,  6.4
"2015/03/06",  7.0,  7.2,  6.8
"2015/03/07",  6.8,  7.1,  6.7
"2015/03/08",  6.7,  6.9,  6.6
"2015/03/09",  7.0,  7.4,  6.8
"2015/03/10",  7.4,  7.8,  7.2
"2015/03/11",  7.0,  7.8,  6.6
"2015/03/12",  6.4,  6.9,  6.0
"2015/03/13",  6.5,  6.9,  6.1
"2015/03/14",  6.6,  6.9,  6.3
"2015/03/15",  6.5,  6.8,  6.3
"2015/03/16",  6.6,  7.2,  6.3
"2015/03/17",  7.6,  8.6,  7.2
"2015/03/18",  8.6,  9.1,  8.3
"2015/03/19",  9.1,  9.2,  9.0
"2015/03/20",  9.0,  9.3,  8.8
"2015/03/21",  9.1,  9.3,  8.9
"2015/03/22",  9.0,  9.5,  8.5
"2015/03/23",  9.3,  9.6,  9.1
"2015/03/24",  8.8,  9.4,  8.3
"2015/03/25",  8.6,  9.0,  8.1
"2015/03/26",  8.7,  9.0,  8.2
"2015/03/27",  8.8,  9.3,  8.3
"2015/03/28",  9.1,  9.6,  8.6
"2015/03/29",  9.5,  9.9,  9.1
"2015/03/30",  9.9, 10.6,  9.5
"2015/03/31", 10.5, 11.1, 10.1
"2015/04/01", 10.8, 11.1, 10.6
"2015/04/02", 10.4, 10.8, 10.0
"2015/04/03", 10.4, 10.8, 10.2
"2015/04/04", 10.8, 11.0, 10.7
"2015/04/05", 10.4, 10.7, 10.3
"2015/04/06", 10.7, 11.7, 10.3
"2015/04/07", 11.4, 11.8, 11.0
"2015/04/08", 10.2, 11.0,  9.4
"2015/04/09",  9.1,  9.6,  8.7
"2015/04/10",  9.3,  9.6,  9.0
"2015/04/11",  9.3,  9.8,  9.2
"2015/04/12",  9.7, 10.4,  9.3
"2015/04/13", 10.1, 10.4,  9.7
"2015/04/14",  9.7, 10.4,  9.5
"2015/04/15", 10.6, 11.3, 10.2
"2015/04/16", 11.2, 12.0, 10.6
"2015/04/17", 12.0, 12.4, 11.6
"2015/04/18", 11.2, 11.8, 10.8
"2015/04/19", 11.6, 11.8, 11.3
"2015/04/20", 12.0, 12.5, 11.7
"2015/04/21", 12.8, 13.1, 12.5
"2015/04/22", 12.9, 13.5, 12.4
"2015/04/23", 13.5, 14.3, 13.1
"2015/04/24", 14.3, 14.8, 13.9
"2015/04/25", 14.6, 14.8, 14.3
"2015/04/26", 14.2, 14.7, 13.7
"2015/04/27", 14.6, 15.4, 14.1
"2015/04/28", 15.3, 16.1, 14.8
"2015/04/29", 15.9, 16.3, 15.6
"2015/04/30", 15.9, 16.4, 15.5
"2015/05/01", 16.2, 16.9, 15.7
"2015/05/02", 16.6, 17.1, 16.1
"2015/05/03", 17.1, 17.7, 16.7
"2015/05/04", 17.6, 18.1, 17.3
"2015/05/05", 17.8, 18.1, 17.5
"2015/05/06", 16.9, 17.6, 16.5
"2015/05/07", 16.9, 17.2, 16.7
"2015/05/08", 16.9, 17.6, 16.5
"2015/05/09", 17.2, 17.6, 17.0
"2015/05/10", 16.9, 17.6, 16.5
"2015/05/11", 17.3, 17.8, 16.9
"2015/05/12", 17.5, 17.8, 17.2
"2015/05/13", 17.8, 18.6, 17.4
"2015/05/14", 18.3, 18.9, 17.9
"2015/05/15", 18.6, 19.0, 18.2
"2015/05/16", 18.6, 19.0, 18.4
"2015/05/17", 18.4, 19.1, 18.1
"2015/05/18", 18.8, 19.1, 18.4
"2015/05/19", 18.8, 19.1, 18.6
"2015/05/20", 18.6, 19.5, 18.2
"2015/05/21", 19.1, 19.7, 18.5
"2015/05/22", 19.1, 19.7, 18.7
"2015/05/23", 19.0, 19.6, 18.5
"2015/05/24", 19.3, 19.7, 18.9
"2015/05/25", 19.3, 19.7, 18.9
"2015/05/26", 19.4, 20.4, 18.9
"2015/05/27", 20.1, 20.6, 19.6
"2015/05/28", 20.3, 20.7, 20.0
"2015/05/29", 20.2, 20.7, 19.9
"2015/05/30", 19.8, 20.6, 19.4
"2015/05/31", 20.7, 21.6, 20.2
"2015/06/01", 21.3, 21.8, 20.8
"2015/06/02", 21.4, 21.9, 21.0
"2015/06/03", 21.4, 21.8, 21.2
"2015/06/04", 21.1, 21.7, 20.7
"2015/06/05", 20.9, 21.7, 20.5
"2015/06/06", 19.5, 20.5, 19.1
"2015/06/07", 19.1, 19.9, 18.6
"2015/06/08", 19.8, 20.2, 19.4
"2015/06/09", 19.7, 20.2, 19.2
"2015/06/10", 19.7, 20.5, 19.3
"2015/06/11", 20.4, 21.0, 20.0
"2015/06/12", 20.8, 21.0, 20.6
"2015/06/13", 20.9, 21.5, 20.5
"2015/06/14", 21.4, 21.5, 21.2
"2015/06/15", 21.4, 22.1, 21.0
"2015/06/16", 21.9, 22.1, 21.6
"2015/06/17", 21.7, 22.0, 21.5
"2015/06/18", 21.5, 21.8, 21.3
"2015/06/19", 21.1, 21.6, 20.8
"2015/06/20", 20.7, 21.4, 20.3
"2015/06/21", 21.0, 21.4, 20.8
"2015/06/22", 20.9, 21.6, 20.5
"2015/06/23", 21.4, 21.7, 21.2
"2015/06/24", 21.6, 22.2, 21.2
"2015/06/25", 22.1, 22.5, 21.8
"2015/06/26", 22.1, 22.5, 21.9
"2015/06/27", 21.6, 21.9, 21.5
"2015/06/28", 21.6, 21.8, 21.4
"2015/06/29", 21.3, 21.7, 20.9
"2015/06/30", 21.3, 21.6, 21.1
"2015/07/01", 21.1, 21.4, 20.8
"2015/07/02", 20.6, 20.8, 20.5
"2015/07/03", 20.7, 20.8, 20.7
"2015/07/04", 20.7, 20.9, 20.6
"2015/07/05", 20.7, 21.0, 20.4
"2015/07/06", 20.2, 20.4, 20.1
"2015/07/07", 20.1, 20.3, 19.9
"2015/07/08", 20.4, 20.7, 20.3
"2015/07/09", 20.3, 20.7, 20.1
"2015/07/10", 20.0, 20.5, 19.8
"2015/07/11", 20.6, 21.3, 20.4
"2015/07/12", 21.5, 22.2, 21.2
"2015/07/13", 22.4, 22.9, 22.1
"2015/07/14", 22.9, 23.4, 22.7
"2015/07/15", 23.3, 23.6, 23.1
"2015/07/16", 23.4, 23.6, 23.3
"2015/07/17", 23.3, 23.5, 23.2
"2015/07/18", 23.3, 23.5, 23.2
"2015/07/19", 23.5, 24.0, 23.2
"2015/07/20", 24.0, 24.3, 23.8
"2015/07/21", 24.2, 24.5, 24.0
"2015/07/22", 24.4, 24.5, 24.2
"2015/07/23", 24.3, 24.5, 24.1
"2015/07/24", 24.2, 24.5, 24.0
"2015/07/25", 24.4, 24.8, 24.2
"2015/07/26", 24.8, 25.1, 24.6
"2015/07/27", 25.0, 25.3, 24.7
"2015/07/28", 25.0, 25.3, 24.8
"2015/07/29", 24.8, 25.1, 24.7
"2015/07/30", 24.7, 24.9, 24.5
"2015/07/31", 24.9, 25.2, 24.6
"2015/08/01", 25.2, 25.6, 25.0
"2015/08/02", 25.5, 25.8, 25.3
"2015/08/03", 25.7, 26.0, 25.5
"2015/08/04", 25.8, 26.1, 25.6
"2015/08/05", 26.0, 26.3, 25.7
"2015/08/06", 26.2, 26.6, 25.9
"2015/08/07", 26.3, 26.6, 26.1
"2015/08/08", 26.2, 26.5, 26.0
"2015/08/09", 25.6, 26.0, 25.4
"2015/08/10", 25.5, 25.8, 25.3
"2015/08/11", 25.7, 25.9, 25.5
"2015/08/12", 25.5, 26.0, 24.8
"2015/08/13", 25.1, 25.2, 25.0
"2015/08/14", 24.8, 25.2, 23.8
"2015/08/15", 23.9, 24.3, 23.7
"2015/08/16", 24.4, 24.5, 24.3
"2015/08/17", 24.4, 24.5, 24.2
"2015/08/18", 24.2, 24.4, 24.1
"2015/08/19", 24.4, 24.5, 24.2
"2015/08/20", 24.2, 24.5, 24.0
"2015/08/21", 24.0, 24.1, 23.8
"2015/08/22", 24.2, 24.6, 24.0
"2015/08/23", 24.5, 24.6, 24.4
"2015/08/24", 24.0, 24.5, 23.7
"2015/08/25", 23.3, 23.7, 23.0
"2015/08/26", 22.6, 23.0, 22.4
"2015/08/27", 22.3, 22.4, 22.2
"2015/08/28", 22.0, 22.2, 21.8
"2015/08/29", 21.6, 21.8, 21.4
"2015/08/30", 21.3, 21.4, 21.3
"2015/08/31", 21.3, 21.4, 21.2
"2015/09/01"," * "," * "," * "
"2015/09/02"," * "," * "," * "
"2015/09/03"," * "," * "," * "
"2015/09/04"," * "," * "," * "
"2015/09/05"," * "," * "," * "
"2015/09/06"," * "," * "," * "
"2015/09/07"," * "," * "," * "
"2015/09/08"," * "," * "," * "
"2015/09/09"," * "," * "," * "
"2015/09/10"," * "," * "," * "
"2015/09/11", 21.5, 21.6, 21.4
"2015/09/12", 21.5, 21.7, 21.3
"2015/09/13", 21.6, 21.7, 21.5
"2015/09/14", 21.6, 21.7, 21.5
"2015/09/15", 21.4, 21.6, 21.2
"2015/09/16", 21.2, 21.4, 21.1
"2015/09/17", 20.6, 21.1, 20.1
"2015/09/18", 20.0, 20.1, 19.9
"2015/09/19", 20.3, 20.7, 20.1
"2015/09/20", 20.7, 20.7, 20.5
"2015/09/21", 20.6, 20.7, 20.4
"2015/09/22", 20.6, 20.7, 20.5
"2015/09/23", 20.4, 20.7, 20.2
"2015/09/24", 20.2, 20.4, 20.1
"2015/09/25", 20.0, 20.2, 19.8
"2015/09/26", 19.7, 19.8, 19.5
"2015/09/27", 19.8, 19.8, 19.7
"2015/09/28", 19.8, 20.0, 19.6
"2015/09/29", 19.9, 20.0, 19.8
"2015/09/30", 19.6, 20.0, 19.5
"2015/10/01", 19.2, 19.5, 19.1
"2015/10/02", 19.3, 19.6, 19.1
"2015/10/03", 19.5, 19.6, 19.3
"2015/10/04", 19.5, 19.6, 19.4
"2015/10/05", 19.2, 19.5, 18.9
"2015/10/06", 18.6, 18.9, 18.5
"2015/10/07", 18.3, 18.5, 18.1
"2015/10/08", 17.7, 18.1, 17.5
"2015/10/09", 17.3, 17.6, 17.0
"2015/10/10", 17.3, 17.5, 17.1
"2015/10/11", 17.4, 17.6, 17.3
"2015/10/12", 17.6, 18.0, 17.4
"2015/10/13", 17.7, 18.0, 17.4
"2015/10/14", 17.7, 18.0, 17.5
"2015/10/15", 17.5, 17.8, 17.3
"2015/10/16", 17.5, 17.6, 17.3
"2015/10/17", 17.2, 17.3, 17.1
"2015/10/18", 17.3, 17.7, 17.2
"2015/10/19", 17.4, 17.7, 17.2
"2015/10/20", 17.4, 17.5, 17.2
"2015/10/21", 17.3, 17.5, 17.2
"2015/10/22", 16.9, 17.2, 16.7
"2015/10/23", 16.7, 16.8, 16.5
"2015/10/24", 16.7, 16.9, 16.5
"2015/10/25", 16.6, 16.9, 16.4
"2015/10/26", 15.9, 16.5, 15.6
"2015/10/27", 15.6, 15.8, 15.4
"2015/10/28", 16.1, 16.5, 15.8
"2015/10/29", 16.4, 16.6, 16.4
"2015/10/30", 16.3, 16.5, 16.1
"2015/10/31", 16.1, 16.4, 15.8
"2015/11/01", 15.4, 15.8, 15.1
"2015/11/02", 15.0, 15.3, 14.7
"2015/11/03", 14.7, 15.1, 14.6
"2015/11/04", 14.8, 15.1, 14.5
"2015/11/05", 14.5, 14.8, 14.2
"2015/11/06", 14.3, 14.6, 14.1
"2015/11/07", 14.4, 14.6, 14.2
"2015/11/08", 14.5, 14.6, 14.5
"2015/11/09", 14.8, 15.2, 14.6
"2015/11/10", 15.4, 15.5, 15.2
"2015/11/11", 15.3, 15.5, 15.1
"2015/11/12", 14.8, 15.2, 14.6
"2015/11/13", 14.2, 14.6, 14.1
"2015/11/14", 14.1, 14.2, 14.0
"2015/11/15", 14.4, 14.6, 14.2
"2015/11/16", 14.5, 14.7, 14.3
"2015/11/17", 14.8, 15.1, 14.7
"2015/11/18", 15.1, 15.2, 15.1
"2015/11/19", 15.0, 15.2, 14.8
"2015/11/20", 14.4, 14.8, 14.2
"2015/11/21", 14.1, 14.2, 14.0
"2015/11/22", 14.0, 14.2, 13.8
"2015/11/23", 13.6, 13.9, 13.4
"2015/11/24", 13.5, 13.7, 13.4
"2015/11/25", 13.3, 13.7, 12.9
"2015/11/26", 12.2, 12.9, 11.9
"2015/11/27", 11.8, 12.0, 11.7
"2015/11/28", 11.2, 11.7, 10.9
"2015/11/29", 10.8, 11.1, 10.6
"2015/11/30", 10.8, 11.0, 10.7
"2015/12/01", 10.7, 11.0, 10.5
"2015/12/02", 10.5, 10.8, 10.4
"2015/12/03", 10.6, 10.6, 10.5
"2015/12/04", 10.4, 10.6, 10.3
"2015/12/05",  9.8, 10.3,  9.5
"2015/12/06",  9.5,  9.8,  9.3
"2015/12/07",  9.5,  9.6,  9.3
"2015/12/08",  9.2,  9.5,  9.1
"2015/12/09",  8.8,  9.2,  8.6
"2015/12/10"," * "," * "," * "
"2015/12/11"," * "," * "," * "
"2015/12/12", 10.2, 10.3, 10.0
"2015/12/13",  9.8, 10.1,  9.6
"2015/12/14"," * "," * "," * "
"2015/12/15"," * "," * "," * "
"2015/12/16", 10.2, 10.5, 10.0
"2015/12/17", 10.4, 10.5, 10.3
"2015/12/18",  9.7, 10.4,  9.3
"2015/12/19",  8.8,  9.4,  8.5
"2015/12/20",  8.1,  8.7,  7.8
"2015/12/21",  8.0,  8.2,  7.8
"2015/12/22",  7.9,  8.2,  7.6
"2015/12/23",  7.7,  8.0,  7.6
"2015/12/24",  7.9,  8.3,  7.7
"2015/12/25",  8.4,  8.7,  8.2
"2015/12/26",  8.2,  8.6,  8.0
"2015/12/27",  7.7,  8.2,  7.5
"2015/12/28",  7.2,  7.7,  6.9
"2015/12/29",  6.6,  7.0,  6.3
"2015/12/30",  6.2,  6.5,  5.9
"2015/12/31",  6.2,  6.5,  6.1
